Regional Weather Roundup
Issued by NWS

Home | Current Version | Previous Version | Text Only | Print | Product List | Glossary On
Versions: 1 2 3 4 5 6 7 8 9 10 11 12 13 14 15 16 17 18 19 20 21 22 23 24 25 26 27 28 29 30 31 32 33 34 35 36 37 38 39 40 41 42 43 44 45 46 47 48 49 50
000
ASUS43 KIND 231009
RWRIN

WEATHER ROUNDUP FOR INDIANA
NATIONAL WEATHER SERVICE INDIANAPOLIS IN
600 AM EDT THU OCT 23 2014

NOTE: "FAIR" INDICATES FEW OR NO CLOUDS BELOW 12,000 FEET WITH NO
SIGNIFICANT WEATHER AND/OR OBSTRUCTIONS TO VISIBILITY.

* - STATION DOES NOT REPORT WEATHER SUCH AS PRECIPITATION OR FOG.

+ - STATION NOT QUALITY CONTROLLED BY THE NATIONAL WEATHER SERVICE.
    USE DATA WITH CAUTION...ESPECIALLY DEWPOINT AND RELATIVE
    HUMIDITY OBSERVATIONS.

INZ001>003-010>013-019-020-231100-
NORTHWEST INDIANA

CITY           SKY/WX    TMP DP  RH WIND       PRES   REMARKS
GARY /AIRPORT/ CLEAR     41  39  93 SE7       30.24F
KNOX *+          N/A     30  29  96 CALM      30.25S VSB 1/4
LA PORTE +     FOG       32  32 100 CALM      30.25F VSB 1/4
MICHIGAN CITY+ CLEAR     37  37 100 S6        30.25F
MONTICELLO +   CLEAR     38  37  98 CALM      30.25S FOG
RENSSELAER +     N/A     36  36 100 SE3       30.25S FOG
VALPARAISO     FOG       31  31 100 CALM      30.25S VSB 1/4

$$

LMZ046-743>745-231100-
SOUTHERN LAKE MICHIGAN

STATION/POSITION TIME  TEMP WIND        PRES
                       AIR  DIR/SP/G
                 (UTC) (F)  (DEG/KT/KT) (MB)
MICHIGAN CITY    1000   41  130/ 12/ 15   N/A

$$

INZ004-005-014>016-021>024-231100-
NORTH CENTRAL INDIANA

CITY           SKY/WX    TMP DP  RH WIND       PRES   REMARKS
GOSHEN         FOG       29  28  96 CALM      30.25S VSB 1/4
LOGANSPORT +   FOG       32  30  93 E3        30.26F VSB 1/4
PERU/GRISSOM   FOG       36  36 100 SE3       30.25S VSB 1
ROCHESTER +    FOG       34  34 100 SE3       30.26S VSB 1
SOUTH BEND     CLEAR     30  28  92 CALM      30.26S FOG
WARSAW +       FOG       32  30  93 CALM      30.26S VSB 1/4

$$

INZ006>009-017-018-025>027-231100-
NORTHEAST INDIANA

CITY           SKY/WX    TMP DP  RH WIND       PRES   REMARKS
ANGOLA *+      CLOUDY    28  10  47 CALM      30.25S VSB 1/4
FORT WAYNE     FOG       31  30  96 CALM      30.27S VSB 1/2
HUNTINGTON +   FOG       32  32 100 CALM      30.26S VSB 1/4

$$

INZ028-029-035-036-043>045-051>053-231100-
WEST CENTRAL INDIANA

CITY           SKY/WX    TMP DP  RH WIND       PRES   REMARKS
GREENCASTLE +  CLEAR     36  36 100 CALM      30.26R FOG
LAFAYETTE      CLEAR     37  36  96 E3        30.25S
TERRE HAUTE    CLEAR     37  35  92 E3        30.26R

$$

INZ030>032-037>040-046>048-054>057-064-065-231100-
CENTRAL INDIANA

CITY           SKY/WX    TMP DP  RH WIND       PRES   REMARKS
CP ATTERBURY + FOG       32  32 100 CALM      30.27S VSB 1/4
FRANKFORT +    CLEAR    N/A N/A N/A E3        30.27R FOG
INDIANAPOLIS   CLEAR     40  37  89 E3        30.25S
-EAGLE CREEK   CLEAR     36  34  92 CALM      30.25S
KOKOMO *+        N/A     34  30  86 SE3       30.27S VSB 1/2
MARION +       FOG       32  31  99 CALM      30.26F VSB 1/4
MT COMFORT *+  CLOUDY    32 N/A N/A CALM      30.26S VSB<1/4
SHELBYVILLE    FOG       33  31  92 CALM      30.26S VSB 1/4
ZIONSVILLE +   FOG       33  31  93 CALM      30.26S VSB 1/2

$$

INZ033-034-041-042-049-050-058-059-231100-
EAST CENTRAL INDIANA

CITY           SKY/WX    TMP DP  RH WIND       PRES   REMARKS
MUNCIE         CLEAR     32  31  96 CALM      30.26S

$$

INZ060-061-067>069-081>083-085>088-231100-
SOUTHWEST INDIANA

CITY           SKY/WX    TMP DP  RH WIND       PRES   REMARKS
EVANSVILLE     CLEAR     40  38  93 NE3       30.25S
HUNTINGBURG *+ CLEAR     37  36  93 CALM      30.26R
WASHINGTON +   FOG       35  35 100 CALM      30.25S VSB 3/4

$$

INZ062-063-066-070>080-084-089>092-231100-
SOUTH CENTRAL AND SOUTHEAST INDIANA

CITY           SKY/WX    TMP DP  RH WIND       PRES   REMARKS
BLOOMINGTON    CLEAR     34  32  92 CALM      30.25S
SEYMOUR +      FOG       34  32  93 CALM      30.26  VSB<1/4

$$




USA.gov is the U.S. government's official web portal to all federal, state and local government web resources and services.